CFG2PM LIRN-LIPE

Flight info

Callsign CFG2PM
Flight time N/A
Altitude 34000
Route ALAXI DCT INSOX DCT AMTEL DCT LOMED
Aircraft A320/M-SDE3FGHIRWY/LB1

Departure

Time 2026-04-28 23:45
Airport Naples International Airport (LIRN)

Arrival

Time N/A
Airport Bologna Guglielmo Marconi Airport (LIPE)
Time Latitude Longitude Altitude Speed Heading
2026-04-28 23:28 40.88172 14.28666 283 ft 0 kts 327°
2026-04-28 23:37 40.88164 14.28673 283 ft 2 kts 327°
2026-04-28 23:37 40.88151 14.28684 283 ft 2 kts 328°
2026-04-28 23:38 40.88139 14.28694 283 ft 2 kts 327°
2026-04-28 23:38 40.88124 14.28702 284 ft 2 kts 355°
2026-04-28 23:38 40.88110 14.28700 284 ft 2 kts 16°
2026-04-28 23:38 40.88096 14.28692 284 ft 2 kts 38°
2026-04-28 23:39 40.88090 14.28684 285 ft 1 kts 51°
2026-04-28 23:39 40.88086 14.28678 285 ft 0 kts 52°
2026-04-28 23:41 40.88091 14.28686 284 ft 2 kts 52°
2026-04-28 23:41 40.88108 14.28715 284 ft 5 kts 51°
2026-04-28 23:41 40.88144 14.28777 281 ft 11 kts 52°
2026-04-28 23:41 40.88201 14.28876 278 ft 15 kts 52°
2026-04-28 23:42 40.88269 14.28993 275 ft 17 kts 53°
2026-04-28 23:42 40.88349 14.29133 270 ft 20 kts 52°
2026-04-28 23:42 40.88441 14.29292 265 ft 23 kts 53°
2026-04-28 23:42 40.88543 14.29468 259 ft 25 kts 52°
2026-04-28 23:43 40.88652 14.29659 254 ft 25 kts 53°
2026-04-28 23:43 40.88751 14.29829 248 ft 24 kts 52°
2026-04-28 23:43 40.88857 14.30012 242 ft 26 kts 52°
2026-04-28 23:43 40.88940 14.30155 239 ft 19 kts 52°
2026-04-28 23:44 40.89045 14.30253 236 ft 19 kts 334°
2026-04-28 23:44 40.89101 14.30133 238 ft 10 kts 242°
2026-04-28 23:44 40.89097 14.30124 238 ft 0 kts 238°
2026-04-28 23:44 40.89053 14.30029 239 ft 44 kts 237°
2026-04-28 23:45 40.88759 14.29407 258 ft 114 kts 238°
2026-04-28 23:45 40.88231 14.28290 360 ft 163 kts 238°
2026-04-28 23:45 40.87755 14.26931 969 ft 167 kts 264°
2026-04-28 23:45 40.87894 14.25449 1731 ft 166 kts 289°
2026-04-28 23:46 40.88385 14.24082 2330 ft 171 kts 298°
2026-04-28 23:46 40.88992 14.22646 2741 ft 187 kts 299°
2026-04-28 23:46 40.89829 14.21255 3120 ft 207 kts 318°
2026-04-28 23:46 40.91032 14.20041 3535 ft 228 kts 324°
2026-04-28 23:47 40.92379 14.18796 4034 ft 246 kts 324°
2026-04-28 23:47 40.93811 14.17441 4546 ft 264 kts 323°
2026-04-28 23:47 40.95316 14.15973 5271 ft 273 kts 322°
2026-04-28 23:47 40.96821 14.14474 6137 ft 276 kts 322°
2026-04-28 23:48 40.98346 14.12937 7004 ft 279 kts 322°
2026-04-28 23:48 40.99894 14.11363 7901 ft 282 kts 322°
2026-04-28 23:48 41.01448 14.09776 8787 ft 284 kts 321°
2026-04-28 23:48 41.03008 14.08178 9655 ft 287 kts 322°
2026-04-28 23:49 41.04586 14.06558 10498 ft 291 kts 322°
2026-04-28 23:49 41.06217 14.04884 11095 ft 304 kts 322°
2026-04-28 23:49 41.07903 14.03151 11810 ft 311 kts 322°
2026-04-28 23:49 41.09609 14.01397 12602 ft 314 kts 321°
2026-04-28 23:50 41.11332 13.99624 13407 ft 316 kts 321°
2026-04-28 23:50 41.13068 13.97836 14159 ft 319 kts 321°
2026-04-28 23:50 41.14801 13.96048 14877 ft 321 kts 321°
2026-04-28 23:50 41.16589 13.94203 15528 ft 325 kts 321°
2026-04-28 23:51 41.18373 13.92358 16224 ft 328 kts 321°
2026-04-28 23:51 41.20171 13.90499 16857 ft 331 kts 321°
2026-04-28 23:51 41.21984 13.88623 17471 ft 334 kts 321°
2026-04-28 23:51 41.23821 13.86723 18119 ft 337 kts 321°
2026-04-28 23:52 41.25665 13.84813 18756 ft 340 kts 321°
2026-04-28 23:52 41.27533 13.82878 19353 ft 343 kts 321°
2026-04-28 23:52 41.29419 13.80922 19926 ft 347 kts 321°
2026-04-28 23:52 41.31324 13.78944 20520 ft 349 kts 321°
2026-04-28 23:53 41.33251 13.76942 21110 ft 352 kts 321°
2026-04-28 23:53 41.35196 13.74919 21691 ft 355 kts 321°
2026-04-28 23:53 41.37145 13.72890 22249 ft 358 kts 321°
2026-04-28 23:53 41.39103 13.70851 22793 ft 361 kts 321°
2026-04-28 23:54 41.41075 13.68797 23347 ft 363 kts 321°